This is the latest recevied weather packets stored in our database for station/object KO4ZGL-13. If no packets are shown the sender has not sent any weather packets the latest 10 day(s).
| Time | Temp. | Humidity | Pressure | Rain* | Wind** | Luminosity | Snow |
|---|---|---|---|---|---|---|---|
| 1788369840 | 35.56° C | 64% | 1018.5 hPa | 0 mm | - | 652 W/m² | - |
| 1788369535 | 35.56° C | 64% | 1018.7 hPa | 0 mm | - | 656 W/m² | - |
| 1788369231 | 35.56° C | 68% | 1018.6 hPa | 0 mm | - | 655 W/m² | - |
| 1788368927 | 35.56° C | 65% | 1018.8 hPa | 0 mm | - | 665 W/m² | - |
| 1788368622 | 35° C | 65% | 1018.8 hPa | 0 mm | - | 659 W/m² | - |
| 1788368318 | 35° C | 68% | 1018.9 hPa | 0 mm | - | 667 W/m² | - |
| 1788368016 | 34.44° C | 64% | 1018.9 hPa | 0 mm | - | 649 W/m² | - |
| 1788367711 | 35° C | 68% | 1019 hPa | 0 mm | - | 645 W/m² | - |
| 1788367407 | 34.44° C | 66% | 1018.8 hPa | 0 mm | - | 651 W/m² | - |
| 1788367105 | 34.44° C | 64% | 1019 hPa | 0 mm | - | 660 W/m² | - |
| 1788366806 | 35° C | 66% | 1019 hPa | 0 mm | - | 655 W/m² | - |
| 1788366504 | 34.44° C | 69% | 1019.2 hPa | 0 mm | - | 659 W/m² | - |
| 1788366199 | 34.44° C | 67% | 1019.3 hPa | 0 mm | - | 662 W/m² | - |
| 1788365894 | 34.44° C | 66% | 1019.1 hPa | 0 mm | - | 670 W/m² | - |
| 1788365590 | 35.56° C | 67% | 1019.1 hPa | 0 mm | - | 664 W/m² | - |
| 1788365285 | 35° C | 68% | 1019.1 hPa | 0 mm | - | 686 W/m² | - |
| 1788364981 | 34.44° C | 68% | 1019.2 hPa | 0 mm | - | 674 W/m² | - |
| 1788364678 | 33.33° C | 67% | 1019.2 hPa | 0 mm | - | 675 W/m² | - |
| 1788364377 | 33.89° C | 69% | 1019.4 hPa | 0 mm | - | 653 W/m² | - |
| 1788364072 | 34.44° C | 66% | 1019.4 hPa | 0 mm | - | 622 W/m² | - |
| 1788363769 | 33.89° C | 67% | 1019.3 hPa | 0 mm | - | 683 W/m² | - |
| 1788363467 | 33.33° C | 70% | 1019.4 hPa | 0 mm | - | 709 W/m² | - |
| 1788363167 | 33.33° C | 72% | 1019.5 hPa | 0 mm | - | 731 W/m² | - |
| 1788362858 | 33.33° C | 65% | 1019.4 hPa | 0 mm | - | 737 W/m² | - |
| 1788362553 | 33.33° C | 70% | 1019.3 hPa | 0 mm | - | 748 W/m² | - |
* Rain latest hour (hover to see other rain measurements)
** Current wind speed in m/s (hover to see current wind gust speed)